This is the latest recevied weather packets stored in our database for station/object NQ9F. If no packets are shown the sender has not sent any weather packets the latest 10 day(s).
| Time | Temp. | Humidity | Pressure | Rain* | Wind** | Luminosity | Snow |
|---|---|---|---|---|---|---|---|
| 1777904468 | 18.89° C | 74% | 1012.4 hPa | 0 mm | - | 320 W/m² | - |
| 1777904164 | 18.89° C | 74% | 1012.4 hPa | 0 mm | - | 322 W/m² | - |
| 1777903861 | 18.89° C | 74% | 1012.3 hPa | 0 mm | - | 319 W/m² | - |
| 1777903558 | 18.89° C | 75% | 1012.3 hPa | 0 mm | - | 332 W/m² | - |
| 1777903254 | 18.33° C | 75% | 1012.3 hPa | 0 mm | - | 202 W/m² | - |
| 1777902950 | 18.33° C | 76% | 1012.2 hPa | 0 mm | - | 229 W/m² | - |
| 1777902647 | 18.33° C | 76% | 1012.3 hPa | 0 mm | - | 251 W/m² | - |
| 1777902344 | 17.78° C | 77% | 1012.5 hPa | 0 mm | - | 251 W/m² | - |
| 1777902041 | 17.78° C | 78% | 1012.5 hPa | 0 mm | - | 200 W/m² | - |
| 1777901740 | 17.78° C | 78% | 1012.3 hPa | 0 mm | - | 192 W/m² | - |
| 1777901437 | 17.22° C | 79% | 1012.4 hPa | 0 mm | - | 177 W/m² | - |
| 1777901134 | 17.22° C | 79% | 1012.4 hPa | 0 mm | - | 146 W/m² | - |
| 1777900832 | 16.67° C | 80% | 1012.2 hPa | 0 mm | - | 112 W/m² | - |
| 1777900529 | 16.67° C | 80% | 1012.2 hPa | 0 mm | - | 110 W/m² | - |
| 1777900226 | 16.67° C | 80% | 1012.3 hPa | 0 mm | - | 101 W/m² | - |
| 1777899922 | 16.67° C | 79% | 1012.3 hPa | 0 mm | - | 96 W/m² | - |
| 1777899620 | 16.67° C | 79% | 1012.3 hPa | 0 mm | - | 130 W/m² | - |
| 1777899316 | 16.67° C | 79% | 1012.4 hPa | 0 mm | - | 139 W/m² | - |
| 1777899014 | 16.67° C | 79% | 1012.4 hPa | 0 mm | - | 118 W/m² | - |
| 1777898711 | 16.11° C | 79% | 1012.4 hPa | 0 mm | - | 100 W/m² | - |
| 1777898409 | 16.11° C | 80% | 1012.3 hPa | 0 mm | - | 76 W/m² | - |
| 1777898106 | 16.11° C | 79% | 1012.5 hPa | 0 mm | - | 64 W/m² | - |
| 1777897802 | 16.11° C | 79% | 1012.3 hPa | 0 mm | - | 51 W/m² | - |
| 1777897499 | 16.11° C | 79% | 1012.4 hPa | 0 mm | - | 42 W/m² | - |
| 1777897194 | 15.56° C | 79% | 1012.3 hPa | 0 mm | - | 37 W/m² | - |
* Rain latest hour (hover to see other rain measurements)
** Current wind speed in m/s (hover to see current wind gust speed)